Location: ?????
(31.8092°N, 35.2590°E)
Time: 03:42:38
(UTC+00:00)

Cosmos 2360 Rocket - Pass Details

Date: 26 October 2021
Orbit: 832 x 846 km, 71.0° (Epoch: 07 December)

Event Time Altitude Azimuth Distance (km) Brightness Sun altitude
Rises 15:56:32 0° 208° (SSW) 3,369 5.8 -13.7°
Reaches altitude 10° 15:58:59 10° 212° (SSW) 2,440 5.1 -14.2°
Maximum altitude 16:04:31 61° 292° (WNW) 948 2.7 -15.4°
Drops below altitude 10° 16:10:06 10° 12° (NNE) 2,462 4.4 -16.6°
Sets 16:12:35 0° 16° (NNE) 3,401 5.1 -17.1°
